Hourly Data Report for January 29, 2021

TORONTO CITY
ONTARIO
Current Station Operator: ECCC - MSC

43°40'00.000" N
79°24'00.000" W
112.50 m
6158355
71508
XTO

Download Data

Hourly Data (January 2021)
Hourly Data Report for January 29, 2021
TIME
LST
Temp Definition
°C
Dew Point Definition
°C
Rel Hum Definition
%
Precip. Amount Definition
mm

Wind Dir Definition
10's deg

Wind Spd Definition
km/h
Visibility Definition
km
Stn Press Definition
kPa
Hmdx Definition


Wind Chill Definition


Weather Definition


00:00 -9.8 -15.5 63 0.0       101.38     LegendNANA
01:00 -11.1 -16.9 62 0.0       101.37     LegendNANA
02:00 -12.0 -18.0 61 0.0       101.41     LegendNANA
03:00 -11.9 -18.1 60 0.0       101.41     LegendNANA
04:00 -11.8 -17.8 61 0.0       101.40     LegendNANA
05:00 -11.5 -17.0 63 0.0       101.34     LegendNANA
06:00 -11.5 -16.3 67 0.0       101.33     LegendNANA
07:00 -11.8 -16.1 70 0.0       101.31     LegendNANA
08:00 -11.4 -16.1 69 0.0       101.35     LegendNANA
09:00 -10.5 -15.3 68 0.0       101.37     LegendNANA
10:00 -10.1 -13.8 74 0.0       101.37     LegendNANA
11:00 -9.8 -15.1 65 0.0       101.37     LegendNANA
12:00 -9.7 -16.3 58 0.0       101.31     LegendNANA
13:00 -9.2 -16.0 58 0.0       101.25     LegendNANA
14:00 -8.4 -15.2 58 0.0       101.19     LegendNANA
15:00 -8.2 -14.8 59 0.0       101.19     LegendNANA
16:00 -7.4 -13.6 61 0.0       101.20     LegendNANA
17:00 -7.3 -13.2 63 0.0       101.20     LegendNANA
18:00 -6.9 -12.8 63 0.0       101.23     LegendNANA
19:00 -6.6 -12.4 63 0.0       101.26     LegendNANA
20:00 -7.7 -12.6 68 0.0       101.27     LegendNANA
21:00 -7.7 -12.7 67 0.0       101.30     LegendNANA
22:00 -7.8 -12.7 67 0.0       101.34     LegendNANA
23:00 -8.3 -13.0 69 0.0       101.34     LegendNANA

Notes on Data Quality.

Legend

  • E = Estimated
  • M = Missing
  • NA = Not Available*
  • [empty] = Indicates an unobserved value
Date modified: